Regional Weather Roundup
Issued by NWS Charleston, SC

Current Version | Previous Version | Graphics & Text | Print | Product List | Glossary On
Versions: 1 2 3 4 5 6 7 8 9 10 11 12 13 14 15 16 17 18 19 20 21 22 23 24 25 26 27 28 29 30 31 32 33 34 35 36 37 38 39 40 41 42 43 44 45 46 47 48 49 50
300
ASUS42 KCHS 120313
RWRCHS

REGIONAL WEATHER ROUNDUP
NATIONAL WEATHER SERVICE CHARLESTON SC
1000 PM EST THU FEB 11 2016

NOTE: "FAIR" INDICATES FEW OR NO CLOUDS BELOW 12,000 FEET WITH NO
SIGNIFICANT WEATHER AND/OR OBSTRUCTIONS TO VISIBILITY.

NOT ALL STATIONS ARE QUALITY CONTROLLED BY THE NATIONAL
WEATHER SERVICE. USE DATA WITH CAUTION...ESPECIALLY
DEWPOINT OBSERVATIONS.

SCZ027-030-031-034>040-042>050-120400-
...SOUTHEAST SOUTH CAROLINA...

CITY           SKY/WX    TMP DP  RH WIND       PRES   REMARKS
N CHARLESTON   CLEAR     40  32  73 CALM      30.24S
WATERFRONT PRK   N/A     46  41  82 VRB2      30.09S
MOUNT PLEASANT FAIR      36  34  93 CALM      30.25S
JOHNS ISLAND   FAIR      39  36  87 CALM      30.23F
PINOPOLIS        N/A     45  32  61 VRB3      30.16F
MONCKS CORNER  CLOUDY    37  30  75 CALM      30.24S
SUMMERVILLE    MOCLDY    37  34  87 CALM      30.24S
BEAUFORT MCAS  CLEAR     43  39  86 CALM      30.21F
BEAUFORT ARPT  FAIR      43  36  75 E5        30.20F
HILTON HEAD IS PTCLDY    48  43  81 NE5       30.21F
WALTERBORO     CLEAR     41  34  75 NE3       30.23S
ALLENDALE      CLOUDY    45  34  65 CALM      30.20F

...SOUTHERN MIDLANDS AND PEE DEE...

CITY           SKY/WX    TMP DP  RH WIND       PRES   REMARKS
GEORGETOWN     FAIR      34  32  93 CALM      30.27R
KINGSTREE      FAIR      34  30  86 CALM      30.25R
ORANGEBURG     CLOUDY    44  29  55 E3        30.22R
BARNWELL       CLOUDY    45  32  61 CALM      30.21S
AIKEN          FAIR      34  28  80 CALM      30.23S
MANNING        MOCLDY    34  30  86 CALM      30.24S
COLUMBIA       CLEAR     40  28  62 CALM      30.22R
SUMTER         CLEAR     35  26  69 NE1       30.22R
FLORENCE       CLEAR     34  27  75 NE5       30.25R WCI  30
MYRTLE BEACH   CLEAR     37  27  65 CALM      30.28S
N MYRTLE BEACH CLEAR     33  30  88 NE3       30.27S

$$

GAZ063-065-086>088-099>101-113>116-118-119-134>141-150-120400-
...SOUTHEAST GEORGIA...

CITY           SKY/WX    TMP DP  RH WIND       PRES   REMARKS
SAVANNAH ARPT  MOCLDY    45  38  76 CALM      30.20S
HUNTER AAF     NOT AVBL
FORT STEWART   CLEAR     44  40  88 N1        30.17S
STATESBORO     PTCLDY    48  33  55 CALM      30.19S
SYLVANIA       CLEAR     44  37  79 CALM      30.20F
CLAXTON        MOCLDY    48  42  80 CALM      30.20R

...CSRA...CENTRAL AND FAR SOUTHEAST GEORGIA...

CITY           SKY/WX    TMP DP  RH WIND       PRES   REMARKS
THOMSON        CLEAR     38  33  82 CALM      30.23S
AUGUSTA-BUSH   CLEAR     36  30  79 CALM      30.20R
AUGUSTA-DANIEL CLEAR     47  26  44 E5        30.19S
SWAINSBORO     FAIR      46  32  57 E5        30.19S
VIDALIA        CLEAR     48  34  57 E3        30.19R
EASTMAN        FAIR      45  39  79 CALM      30.21R
HAZLEHURST     CLOUDY    57  48  71 CALM      30.17R
ALMA           CLEAR     54  49  83 SW7       30.18S
WAYCROSS       CLEAR     57  54  87 SW9       30.20R
JESUP          FAIR      55  48  76 SW3       30.19S
BAXLEY         CLOUDY    55  50  82 SW7       30.17S
BRUNSWICK      CLEAR     46  45  93 CALM      30.21R
SAINT SIMONS   CLEAR     54  46  74 SW8       30.20S

$$

SCZ027-028-034-036>038-045-046-048>050-GAZ119-141-120400-
...LAKE AND SUPPLEMENTAL COASTAL OBSERVATIONS...

STATION/POSITION TIME  TEMP    WIND        PRES    WAVE   SWELL
                       AIR SEA DIR/SP/G            HT/PER HT/PER/DIR
                 (UTC) (F)     (DEG/KT/KT) (MB)    (FT/S) (FT/S/D)
WINYAH BAY       0145   38     320/  1     1023.0
LAKE MURRAY      0200   44      CALM  /  1 1022.4S
ACE BASIN NERRS  NOT AVBL
FORT PULASKI     0200   51 50                N/A
SAPELO ISLAND    0200   51     180/  7     1022.0S

$$

ANZ835-935-AMZ111-154-330-350-352-354-370-450-454-472-120400-
...C-MAN AND BUOY OBSERVATIONS...

STATION/POSITION TIME  TEMP    WIND        PRES    WAVE   SWELL
                       AIR SEA DIR/SP/G            HT/PER HT/PER/DIR
                 (UTC) (F)     (DEG/KT/KT) (MB)    (FT/S) (FT/S/D)
BUOY 41004       0250   54 67  240/  2/  4 1024.2F   2/ 5   2/ 5
BUOY 41008       0250   55 53  200/ 14/ 16 1022.7R   4/ 5
FOLLY BEACH CMAN 0300   49     120/  4/  4 1023.9F
CAPERS NEARSHORE 0208   50     180/  4/  6 1023.9R
FRIPP NEARSHORE  0200   51      80/  8/ 10 1022.3F


STATION/POSITION TIME  TEMP    WIND        PRES    WAVE   SWELL
                       AIR SEA DIR/SP/G            HT/PER HT/PER/DIR
                 (UTC) (F)     (DEG/KT/KT) (MB)    (FT/S) (FT/S/D)
5E ST. MARYS GA  0221      56                N/A     3/ 4
FRYING PAN BUOY  0200   46 56  360/  6/  8 1025.5R
BUOY 41025       0250   42 69  320/ 14/ 17 1026.1R   4/ 7   2/ 40/ 7
CAPE LOOKOUT NC  NOT AVBL
BUOY 41002       0250   56 68  300/ 16/ 19   N/A     8/ 8   5/290/ 8
BUOY 41010       0220   62 72              1025.6R
ST AUGUSTINE FL  0300   54 57  220/  6/  8 1025.0R


$$




USA.gov is the U.S. government's official web portal to all federal, state and local government web resources and services.